STARLINK-5362, 55493

Orbit data source: Space-Track

STARLINK-5362, 55493 is a payload satellite owned by SpaceX/Seattle (US) in LEO that was launched on Thu, 02 Feb 2023 UTC via an FALCON 9 launch vehicle from the Air Force Eastern Test Range (AFETR). Payload-class satellites include a variety of spacecraft equipped with specific instruments for various scientific and technological missions. These include communications satellites like Starlink; space stations such as the ISS; scientific satellites like the Hubble; Earth observation satellites from companies like Planet Labs, Umbra, and HawkEye 360; GPS; miniature CubeSats for education and research; and military/defense satellites.

Loading next visibility...
Identifier
55493, 2023-015AW
Orbit
LEO
Country
Flag of USUS
Related business
Manufacturer
SpaceX/Seattle
Mission
Operational Commercial Communications
Bus & Motor
STARLINK, Unknown motor
Mass
305 kg wet, ~290 kg dry
Launch date (UTC)
2023-02-02 (3 years ago)
Launch vehicle
FALCON 9
Launch site
Air Force Eastern Test Range (AFETR)
Object type
Payload
Rocket body
Debris
Shape & HBR
Box + 1 Pan, 10.1 m
Radar Cross Section
13.562 m², Large (>1 m²)

Expand to show TLE details & history
Last TLE update: 11 hours ago

TLE from 11 hours ago
0 STARLINK-5362
1 55493U 23015AW  26035.64011456  .00000509  00000-0  52726-4 0  9990
2 55493  43.0014 158.4575 0000911 265.0153  95.0586 15.02548879165631
Epoch: 2026-02-04T15:21Z
TLE epoch observation values (Epoch: 2026-02-04T15:21:45.897Z)
Latitude
0.00001°
Longitude
153.21247°
Altitude
558.874 km
Speed
7.584 km/s
True Right ascension
10h 33m 49s
True Declination
0° 00' 00"
Sunlit
Object was in full shadow at epoch
Visualization orbit readout
Latitude
Unknown
Longitude
Unknown
Altitude
Unknown
Speed
Unknown
Apparent Right ascension
Unknown
Apparent Declination
Unknown
Sunlit
N/A
Visualization observer readout
Local Sidereal Time
04:39:26
Azimuth
Unknown
Elevation
Unknown
Doppler factor
Unknown
Orbital elements
Apogee altitude
561.596 km
Perigee altitude
560.331 km
Semi-major axis
6,939.101 km
Eccentricity
0.00009
Inclination
43.0014°
RAAN
158.4575°
Arg. of periapsis
265.0153°
True anomaly
95.069°
Mean anomaly
95.0586°
Eccentric anomaly
95.0638°
Mean motion
3.75481 °/min
Orbital period
95.88 mins
BSTAR
0.000052726
Loading maneuver chart data...
Computing Atmospheric mass density...
Loading historical data...
Loading historical data...
Loading historical data...
Loading historical data...
Loading historical data...
Loading historical data...
Loading historical data...

Documentation

Showing up to 5 results
|